Overview Statistics Trail Chart Weather Telemetry Raw packets
 

This is the latest recevied weather packets stored in our database for station/object W4MLN-3. If no packets are shown the sender has not sent any weather packets the latest 10 day(s).

<< 1 2 3 4 5 >>
Time Temp. Humidity Pressure Rain* Wind** Luminosity Snow
1788641403 28.89° C 50% 1015.7 hPa 0 mm - - -
1788641103 28.89° C 48% 1015.7 hPa 0 mm - - -
1788640803 28.89° C 49% 1015.6 hPa 0 mm - - -
1788640503 28.89° C 48% 1015.7 hPa 0 mm - - -
1788640203 28.89° C 50% 1015.8 hPa 0 mm - - -
1788639903 28.33° C 51% 1015.8 hPa 0 mm - - -
1788639603 28.33° C 52% 1015.7 hPa 0 mm - - -
1788639303 27.78° C 54% 1015.7 hPa 0 mm - - -
1788639003 27.78° C 57% 1015.6 hPa 0 mm - - -
1788638703 27.22° C 58% 1015.7 hPa 0 mm - - -
1788638403 26.67° C 55% 1015.7 hPa 0 mm - - -
1788638103 26.11° C 58% 1015.6 hPa 0 mm - - -
1788637803 26.11° C 58% 1015.5 hPa 0 mm - - -
1788637503 25.56° C 57% 1015.4 hPa 0 mm - - -
1788637203 25.56° C 58% 1015.4 hPa 0 mm - - -
1788636903 25.56° C 57% 1015.4 hPa 0 mm - - -
1788636603 25° C 59% 1015.4 hPa 0 mm - - -
1788636303 25° C 58% 1015.5 hPa 0 mm - - -
1788636024 25° C 58% 1015.5 hPa 0 mm - - -
1788635703 24.44° C 61% 1015.5 hPa 0 mm - - -
1788635403 24.44° C 62% 1015.7 hPa 0 mm - - -
1788635103 23.89° C 63% 1015.6 hPa 0 mm - - -
1788634824 23.89° C 63% 1015.5 hPa 0 mm - - -
1788634503 23.89° C 65% 1015.4 hPa 0 mm - - -
1788634203 23.33° C 67% 1015.7 hPa 0 mm - - -

* Rain latest hour (hover to see other rain measurements)
** Current wind speed in m/s (hover to see current wind gust speed)